Flag for Mozambique Weather past 2 weeks in Nampula, Mozambique

Now
91 °F

Scattered clouds.


Feels Like: 90 °F
Forecast: 65 / 87 °F
Wind: 2 mph from Southeast

Location: Nampula Airport

Current Time: Aug 23, 2014 at 2:40:40 PM

Latest Report: Aug 23, 2014 at 2:00 PM


Visibility: N/A

Pressure: 29.83 "Hg

Humidity: 32%

Dew point: 57 °F

Location of NampulaLocation

Historic Weather in Nampula — Graph

°F

Nampula temperature yesterday

Maximum temperature yesterday: 90 °F (at 2:00 PM)
Minimum temperature yesterday: 72 °F (at 8:00 AM)
Average temperature yesterday: 81 °F

Past Weeks' High & Low Weather Summary

 TemperatureHumidityPressure
High90 °F (Aug 22, 2:00 PM)100% (Aug 10, 7:00 AM)30.24 "Hg (Aug 10, 7:00 AM)
Low63 °F (Aug 21, 4:00 AM)35% (Aug 20, 4:00 PM)29.83 "Hg (Aug 23, 12:00 AM)
Average74 °F68%30.11 "Hg
* Reported Aug 8 12:00 Noon — Aug 23 12:00 Noon, Nampula, Weather by CustomWeather, © 2014

Note: Actual official high and low records may vary slightly from our data, if they occured in-between our weather recording intervals... More about our weather records

Advertising

Nampula weather history for previous 24 hours

 ConditionsComfort  
Time TempWeatherWind HumidityBarometerVisibility
12:00 PM
Aug 23
90 °FScattered clouds.7 mph43%29.86 "HgN/A
11:00 AM86 °FSunny.7 mph49%29.89 "Hg10 mi
9:00 AM79 °FSunny.12 mph65%29.92 "Hg10 mi
8:00 AM75 °FSunny.12 mph78%29.92 "Hg10 mi
7:00 AM70 °FSunny.8 mph94%29.92 "Hg10 mi
5:00 AM70 °FClear.10 mph78%29.92 "Hg10 mi
4:00 AM72 °FClear.9 mph69%29.92 "Hg10 mi
3:00 AM73 °FClear.9 mph69%29.92 "Hg10 mi
2:00 AM73 °FClear.10 mph69%29.95 "Hg10 mi
1:00 AM73 °FClear.10 mph69%29.95 "Hg10 mi
12:00 AM72 °FPassing clouds.12 mph94%29.83 "Hg10 mi
11:00 PM
Aug 22
75 °FClear.8 mph61%29.95 "Hg10 mi
10:00 PM75 °FClear.9 mph65%29.95 "Hg10 mi
9:00 PM75 °FClear.7 mph65%29.92 "Hg10 mi
8:00 PM79 °FClear.10 mph58%29.92 "Hg10 mi
7:00 PM81 °FClear.9 mph58%29.89 "Hg10 mi
6:00 PM82 °FClear.No wind48%29.86 "Hg10 mi
5:00 PM88 °FPassing clouds.2 mph43%29.86 "HgN/A
4:00 PM90 °FScattered clouds.8 mph38%29.86 "HgN/A
2:00 PM90 °FScattered clouds.7 mph43%29.86 "HgN/A
Weather by CustomWeather, © 2014

See weather overviewHow to use our weather pages